Time,TemperatureF,DewpointF,PressureIn,WindDirection,WindDirectionDegrees,WindSpeedMPH,WindSpeedGustMPH,Humidity,HourlyPrecipIn,Conditions,Clouds,dailyrainin,SolarRadiationWatts/m^2,SoftwareType,DateUTC
2013-01-17 00:05:00,30.3,28.5,30.08,WSW,247,0.0,1.0,93,0.00,,,0.00,0,Wunderground v.1.15,2013-01-17 05:05:00,
2013-01-17 00:10:00,30.3,28.3,30.07,WSW,247,0.0,0.0,92,0.00,,,0.00,0,Wunderground v.1.15,2013-01-17 05:10:00,
2013-01-17 00:20:00,30.3,28.3,30.07,West,267,1.0,3.0,92,0.00,,,0.00,0,Wunderground v.1.15,2013-01-17 05:20:00,
2013-01-17 00:25:00,30.3,28.3,30.07,WSW,251,2.0,3.0,92,0.00,,,0.00,0,Wunderground v.1.15,2013-01-17 05:25:00,
2013-01-17 00:35:00,30.3,28.3,30.07,West,267,2.0,4.0,92,0.00,,,0.00,0,Wunderground v.1.15,2013-01-17 05:35:00,
2013-01-17 00:40:00,30.2,28.4,30.07,West,268,2.0,2.0,93,0.00,,,0.00,0,Wunderground v.1.15,2013-01-17 05:40:00,
2013-01-17 00:50:00,30.2,28.4,30.07,WNW,283,2.0,2.0,93,0.00,,,0.00,0,Wunderground v.1.15,2013-01-17 05:50:00,
2013-01-17 00:55:00,30.2,28.4,30.07,WSW,258,1.0,2.0,93,0.00,,,0.00,0,Wunderground v.1.15,2013-01-17 05:55:00,
2013-01-17 01:05:00,30.2,28.4,30.08,West,270,2.0,2.0,93,0.00,,,0.00,0,Wunderground v.1.15,2013-01-17 06:05:00,
2013-01-17 01:15:00,30.2,28.4,30.08,West,270,1.0,3.0,93,0.00,,,0.00,0,Wunderground v.1.15,2013-01-17 06:15:00,
2013-01-17 01:20:00,30.2,28.4,30.08,WNW,292,1.0,1.0,93,0.00,,,0.00,0,Wunderground v.1.15,2013-01-17 06:20:00,
2013-01-17 01:30:00,30.2,28.2,30.08,WNW,292,0.0,0.0,92,0.00,,,0.00,0,Wunderground v.1.15,2013-01-17 06:30:00,
2013-01-17 01:35:00,30.3,28.3,30.08,WNW,292,1.0,1.0,92,0.00,,,0.00,0,Wunderground v.1.15,2013-01-17 06:35:00,
2013-01-17 01:45:00,30.3,28.3,30.08,WNW,292,1.0,4.0,92,0.00,,,0.00,0,Wunderground v.1.15,2013-01-17 06:45:00,
2013-01-17 01:55:00,30.3,28.3,30.08,WNW,292,1.0,1.0,92,0.00,,,0.00,0,Wunderground v.1.15,2013-01-17 06:55:00,
2013-01-17 02:00:00,30.3,28.3,30.08,WNW,292,0.0,0.0,92,0.00,,,0.00,0,Wunderground v.1.15,2013-01-17 07:00:00,
2013-01-17 02:10:00,30.2,28.2,30.09,WNW,292,0.0,0.0,92,0.00,,,0.00,0,Wunderground v.1.15,2013-01-17 07:10:00,
2013-01-17 02:15:00,30.3,28.3,30.09,WNW,292,0.0,0.0,92,0.00,,,0.00,0,Wunderground v.1.15,2013-01-17 07:15:00,
2013-01-17 02:25:00,30.3,28.3,30.08,WNW,292,0.0,1.0,92,0.00,,,0.00,0,Wunderground v.1.15,2013-01-17 07:25:00,
2013-01-17 02:30:00,30.3,28.0,30.09,WNW,292,1.0,1.0,91,0.00,,,0.00,0,Wunderground v.1.15,2013-01-17 07:30:00,
2013-01-17 02:40:00,30.3,28.3,30.08,WNW,292,1.0,1.0,92,0.00,,,0.00,0,Wunderground v.1.15,2013-01-17 07:40:00,
2013-01-17 02:45:00,30.3,28.3,30.08,WNW,292,0.0,1.0,92,0.00,,,0.00,0,Wunderground v.1.15,2013-01-17 07:45:00,
2013-01-17 02:55:00,30.2,28.2,30.09,West,267,2.0,3.0,92,0.00,,,0.00,0,Wunderground v.1.15,2013-01-17 07:55:00,
2013-01-17 03:00:00,30.3,28.3,30.08,West,280,1.0,1.0,92,0.00,,,0.00,0,Wunderground v.1.15,2013-01-17 08:00:00,
2013-01-17 03:10:00,30.3,28.3,30.09,NW,311,2.0,2.0,92,0.00,,,0.00,0,Wunderground v.1.15,2013-01-17 08:10:00,
2013-01-17 03:15:00,30.3,28.3,30.09,NW,311,1.0,2.0,92,0.00,,,0.00,0,Wunderground v.1.15,2013-01-17 08:15:00,
2013-01-17 03:25:00,30.5,28.5,30.09,West,275,1.0,2.0,92,0.00,,,0.00,0,Wunderground v.1.15,2013-01-17 08:25:00,
2013-01-17 03:35:00,30.5,28.2,30.08,WNW,286,2.0,2.0,91,0.00,,,0.00,0,Wunderground v.1.15,2013-01-17 08:35:00,
2013-01-17 03:40:00,30.5,28.2,30.09,WNW,286,1.0,1.0,91,0.00,,,0.00,0,Wunderground v.1.15,2013-01-17 08:40:00,
2013-01-17 03:50:00,30.5,28.2,30.09,WNW,301,1.0,3.0,91,0.00,,,0.00,0,Wunderground v.1.15,2013-01-17 08:50:00,
2013-01-17 03:55:00,30.5,28.2,30.08,NW,305,2.0,3.0,91,0.00,,,0.00,0,Wunderground v.1.15,2013-01-17 08:55:00,
2013-01-17 04:05:00,30.5,28.2,30.09,NW,305,0.0,2.0,91,0.00,,,0.00,0,Wunderground v.1.15,2013-01-17 09:05:00,
2013-01-17 04:10:00,30.5,28.2,30.08,NW,305,0.0,0.0,91,0.00,,,0.00,0,Wunderground v.1.15,2013-01-17 09:10:00,
2013-01-17 04:20:00,30.4,28.1,30.08,NW,305,0.0,1.0,91,0.00,,,0.00,0,Wunderground v.1.15,2013-01-17 09:20:00,
2013-01-17 04:25:00,30.4,28.4,30.08,NW,305,0.0,1.0,92,0.00,,,0.00,0,Wunderground v.1.15,2013-01-17 09:25:00,
2013-01-17 04:35:00,30.2,28.2,30.08,NW,305,1.0,2.0,92,0.00,,,0.00,0,Wunderground v.1.15,2013-01-17 09:35:00,
2013-01-17 04:40:00,30.1,28.1,30.08,NW,305,1.0,2.0,92,0.00,,,0.00,0,Wunderground v.1.15,2013-01-17 09:40:00,
2013-01-17 04:50:00,30.1,28.1,30.08,WNW,299,1.0,2.0,92,0.00,,,0.00,0,Wunderground v.1.15,2013-01-17 09:50:00,
2013-01-17 04:55:00,30.1,28.1,30.08,NW,308,2.0,2.0,92,0.00,,,0.00,0,Wunderground v.1.15,2013-01-17 09:55:00,
2013-01-17 05:05:00,30.1,28.1,30.09,NW,308,1.0,2.0,92,0.00,,,0.00,0,Wunderground v.1.15,2013-01-17 10:05:00,
2013-01-17 05:10:00,30.1,28.1,30.08,NW,308,1.0,1.0,92,0.00,,,0.00,0,Wunderground v.1.15,2013-01-17 10:10:00,
2013-01-17 05:20:00,30.0,28.0,30.09,NW,308,1.0,1.0,92,0.00,,,0.00,0,Wunderground v.1.15,2013-01-17 10:20:00,
2013-01-17 05:25:00,30.0,28.2,30.09,NW,308,1.0,2.0,93,0.00,,,0.00,0,Wunderground v.1.15,2013-01-17 10:25:00,
2013-01-17 05:35:00,29.9,27.9,30.08,NW,308,1.0,1.0,92,0.00,,,0.00,0,Wunderground v.1.15,2013-01-17 10:35:00,
2013-01-17 05:45:00,29.9,28.1,30.08,NW,308,0.0,1.0,93,0.00,,,0.00,0,Wunderground v.1.15,2013-01-17 10:45:00,
2013-01-17 05:55:00,29.9,27.9,30.09,NW,308,0.0,0.0,92,0.00,,,0.00,0,Wunderground v.1.15,2013-01-17 10:55:00,
2013-01-17 06:05:00,29.8,28.0,30.09,NW,308,0.0,1.0,93,0.00,,,0.00,0,Wunderground v.1.15,2013-01-17 11:05:00,
2013-01-17 06:10:00,29.8,28.0,30.10,NW,308,1.0,1.0,93,0.00,,,0.00,0,Wunderground v.1.15,2013-01-17 11:10:00,
2013-01-17 06:20:00,29.8,28.0,30.10,NW,308,1.0,1.0,93,0.00,,,0.00,0,Wunderground v.1.15,2013-01-17 11:20:00,
2013-01-17 06:25:00,29.8,28.0,30.10,NW,308,1.0,1.0,93,0.00,,,0.00,0,Wunderground v.1.15,2013-01-17 11:25:00,
2013-01-17 06:35:00,29.8,27.8,30.10,NW,308,0.0,1.0,92,0.00,,,0.00,0,Wunderground v.1.15,2013-01-17 11:35:00,
2013-01-17 06:45:00,30.0,28.2,30.10,NW,308,0.0,0.0,93,0.00,,,0.00,0,Wunderground v.1.15,2013-01-17 11:45:00,
2013-01-17 06:50:00,30.0,28.0,30.09,NW,308,0.0,0.0,92,0.00,,,0.00,0,Wunderground v.1.15,2013-01-17 11:50:00,
2013-01-17 07:00:00,30.0,28.0,30.09,NW,308,0.0,0.0,92,0.00,,,0.00,0,Wunderground v.1.15,2013-01-17 12:00:00,
2013-01-17 07:05:00,29.9,27.6,30.10,NW,308,0.0,0.0,91,0.00,,,0.00,0,Wunderground v.1.15,2013-01-17 12:05:00,
2013-01-17 07:15:00,29.8,27.8,30.09,NW,308,0.0,0.0,92,0.00,,,0.00,0,Wunderground v.1.15,2013-01-17 12:15:00,
2013-01-17 07:20:00,29.7,27.7,30.09,NW,308,0.0,0.0,92,0.00,,,0.00,0,Wunderground v.1.15,2013-01-17 12:20:00,
2013-01-17 07:30:00,29.6,27.8,30.09,NW,308,0.0,0.0,93,0.00,,,0.00,0,Wunderground v.1.15,2013-01-17 12:30:00,
2013-01-17 07:35:00,29.6,27.8,30.09,NW,308,0.0,0.0,93,0.00,,,0.00,0,Wunderground v.1.15,2013-01-17 12:35:00,
2013-01-17 07:45:00,29.7,27.9,30.10,NW,308,0.0,0.0,93,0.00,,,0.00,0,Wunderground v.1.15,2013-01-17 12:45:00,
2013-01-17 07:50:00,29.9,27.9,30.10,NW,308,0.0,1.0,92,0.00,,,0.00,0,Wunderground v.1.15,2013-01-17 12:50:00,
2013-01-17 08:00:00,30.0,27.7,30.10,NW,308,0.0,2.0,91,0.00,,,0.00,0,Wunderground v.1.15,2013-01-17 13:00:00,
2013-01-17 08:10:00,30.0,27.4,30.10,NW,308,1.0,1.0,90,0.00,,,0.00,0,Wunderground v.1.15,2013-01-17 13:10:00,
2013-01-17 08:15:00,30.1,27.3,30.10,NW,308,0.0,1.0,89,0.00,,,0.00,5,Wunderground v.1.15,2013-01-17 13:15:00,
2013-01-17 08:25:00,30.2,27.3,30.11,NNW,347,0.0,0.0,89,0.00,,,0.00,19,Wunderground v.1.15,2013-01-17 13:25:00,
2013-01-17 08:30:00,30.2,27.1,30.11,NNW,347,0.0,0.0,88,0.00,,,0.00,25,Wunderground v.1.15,2013-01-17 13:30:00,
2013-01-17 08:40:00,30.3,26.9,30.11,NNW,347,1.0,2.0,87,0.00,,,0.00,33,Wunderground v.1.15,2013-01-17 13:40:00,
2013-01-17 08:45:00,30.5,27.1,30.12,NNW,347,1.0,2.0,87,0.00,,,0.00,44,Wunderground v.1.15,2013-01-17 13:45:00,
2013-01-17 08:55:00,30.8,27.4,30.13,NNW,347,0.0,1.0,87,0.00,,,0.00,53,Wunderground v.1.15,2013-01-17 13:55:00,
2013-01-17 09:00:00,30.9,27.2,30.13,NNW,347,0.0,0.0,86,0.00,,,0.00,58,Wunderground v.1.15,2013-01-17 14:00:00,
2013-01-17 09:10:00,31.1,28.0,30.14,NNW,347,0.0,0.0,88,0.00,,,0.00,70,Wunderground v.1.15,2013-01-17 14:10:00,
2013-01-17 09:15:00,31.2,27.8,30.14,NNW,347,0.0,0.0,87,0.00,,,0.00,74,Wunderground v.1.15,2013-01-17 14:15:00,
2013-01-17 09:25:00,31.5,27.5,30.15,NNW,347,0.0,0.0,85,0.00,,,0.00,77,Wunderground v.1.15,2013-01-17 14:25:00,
2013-01-17 09:30:00,31.6,27.6,30.15,NNW,347,0.0,0.0,85,0.00,,,0.00,83,Wunderground v.1.15,2013-01-17 14:30:00,
2013-01-17 09:40:00,31.9,27.9,30.16,NNW,347,0.0,0.0,85,0.00,,,0.00,100,Wunderground v.1.15,2013-01-17 14:40:00,
2013-01-17 09:45:00,32.1,28.1,30.15,NNW,347,0.0,0.0,85,0.00,,,0.00,116,Wunderground v.1.15,2013-01-17 14:45:00,
2013-01-17 09:55:00,32.5,28.2,30.16,NNW,347,0.0,0.0,84,0.00,,,0.00,130,Wunderground v.1.15,2013-01-17 14:55:00,
2013-01-17 10:00:00,32.7,28.1,30.16,NE,44,0.0,1.0,83,0.00,,,0.00,162,Wunderground v.1.15,2013-01-17 15:00:00,
2013-01-17 10:10:00,33.3,28.1,30.16,ENE,58,0.0,1.0,81,0.00,,,0.00,220,Wunderground v.1.15,2013-01-17 15:10:00,
2013-01-17 10:15:00,33.7,28.2,30.16,ENE,60,0.0,2.0,80,0.00,,,0.00,206,Wunderground v.1.15,2013-01-17 15:15:00,
2013-01-17 10:25:00,34.1,28.3,30.17,ENE,71,1.0,3.0,79,0.00,,,0.00,174,Wunderground v.1.15,2013-01-17 15:25:00,
2013-01-17 10:35:00,34.6,29.1,30.17,NE,48,1.0,2.0,80,0.00,,,0.00,200,Wunderground v.1.15,2013-01-17 15:35:00,
2013-01-17 10:45:00,35.2,29.3,30.17,NE,35,2.0,2.0,79,0.00,,,0.00,234,Wunderground v.1.15,2013-01-17 15:45:00,
2013-01-17 10:55:00,36.1,29.9,30.16,NE,40,3.0,6.0,78,0.00,,,0.00,399,Wunderground v.1.15,2013-01-17 15:55:00,
2013-01-17 11:00:00,36.5,30.0,30.16,North,8,5.0,5.0,77,0.00,,,0.01,411,Wunderground v.1.15,2013-01-17 16:00:00,
2013-01-17 11:10:00,37.1,30.6,30.15,ENE,59,5.0,5.0,77,0.00,,,0.01,455,Wunderground v.1.15,2013-01-17 16:10:00,
2013-01-17 11:15:00,37.3,30.4,30.14,NNE,28,4.0,5.0,76,0.00,,,0.01,206,Wunderground v.1.15,2013-01-17 16:15:00,
2013-01-17 11:25:00,38.0,31.1,30.14,NE,43,5.0,8.0,76,0.00,,,0.01,636,Wunderground v.1.15,2013-01-17 16:25:00,
2013-01-17 11:30:00,38.2,31.0,30.13,NE,40,5.0,7.0,75,0.00,,,0.01,285,Wunderground v.1.15,2013-01-17 16:30:00,
2013-01-17 11:40:00,38.6,31.4,30.13,NE,45,4.0,5.0,75,0.00,,,0.01,647,Wunderground v.1.15,2013-01-17 16:40:00,
2013-01-17 11:50:00,38.8,31.2,30.13,NE,44,5.0,5.0,74,0.00,,,0.02,213,Wunderground v.1.15,2013-01-17 16:50:00,
2013-01-17 11:55:00,38.9,31.6,30.13,ENE,61,5.0,7.0,75,0.00,,,0.02,494,Wunderground v.1.15,2013-01-17 16:55:00,
2013-01-17 12:05:00,38.7,31.5,30.12,ENE,72,5.0,5.0,75,0.05,,,0.03,483,Wunderground v.1.15,2013-01-17 17:05:00,
2013-01-17 12:15:00,38.9,31.6,30.11,NNE,23,5.0,5.0,75,0.04,,,0.04,489,Wunderground v.1.15,2013-01-17 17:15:00,
2013-01-17 12:25:00,39.3,32.0,30.11,ENE,62,3.0,4.0,75,0.05,,,0.05,494,Wunderground v.1.15,2013-01-17 17:25:00,
2013-01-17 12:35:00,39.9,32.3,30.10,NE,40,3.0,5.0,74,0.05,,,0.05,501,Wunderground v.1.15,2013-01-17 17:35:00,
2013-01-17 12:40:00,40.1,32.8,30.10,NW,326,4.0,4.0,75,0.04,,,0.05,504,Wunderground v.1.15,2013-01-17 17:40:00,
2013-01-17 12:50:00,40.9,33.9,30.09,NNE,15,4.0,4.0,76,0.04,,,0.06,508,Wunderground v.1.15,2013-01-17 17:50:00,
2013-01-17 12:55:00,41.4,33.7,30.09,NNW,331,4.0,6.0,74,0.04,,,0.06,510,Wunderground v.1.15,2013-01-17 17:55:00,
2013-01-17 13:05:00,42.0,34.3,30.08,NE,45,5.0,7.0,74,0.04,,,0.07,503,Wunderground v.1.15,2013-01-17 18:05:00,
2013-01-17 13:10:00,42.4,33.7,30.07,NE,39,4.0,4.0,71,0.04,,,0.07,506,Wunderground v.1.15,2013-01-17 18:10:00,
2013-01-17 13:20:00,43.4,34.6,30.07,ENE,70,5.0,5.0,71,0.04,,,0.08,513,Wunderground v.1.15,2013-01-17 18:20:00,
2013-01-17 13:25:00,43.8,34.3,30.07,WNW,294,6.0,10.0,69,0.06,,,0.09,475,Wunderground v.1.15,2013-01-17 18:25:00,
2013-01-17 13:35:00,43.8,34.3,30.06,North,349,8.0,9.0,69,0.05,,,0.10,508,Wunderground v.1.15,2013-01-17 18:35:00,
2013-01-17 13:40:00,43.9,34.7,30.06,North,354,9.0,9.0,70,0.05,,,0.10,506,Wunderground v.1.15,2013-01-17 18:40:00,
2013-01-17 13:50:00,44.4,34.9,30.05,NNW,345,7.0,7.0,69,0.06,,,0.11,499,Wunderground v.1.15,2013-01-17 18:50:00,
2013-01-17 13:55:00,44.5,35.0,30.06,NNE,16,6.0,7.0,69,0.05,,,0.11,487,Wunderground v.1.15,2013-01-17 18:55:00,
2013-01-17 14:05:00,44.2,34.3,30.07,NNE,21,9.0,10.0,68,0.04,,,0.12,482,Wunderground v.1.15,2013-01-17 19:05:00,
2013-01-17 14:10:00,44.3,34.4,30.07,NNW,343,8.0,8.0,68,0.04,,,0.12,478,Wunderground v.1.15,2013-01-17 19:10:00,
2013-01-17 14:20:00,44.5,34.6,30.07,NW,324,7.0,9.0,68,0.05,,,0.13,466,Wunderground v.1.15,2013-01-17 19:20:00,
2013-01-17 14:30:00,43.9,34.0,30.08,NNW,335,8.0,8.0,68,0.00,,,0.13,459,Wunderground v.1.15,2013-01-17 19:30:00,
2013-01-17 14:40:00,43.8,32.4,30.08,NW,320,10.0,10.0,64,0.00,,,0.14,443,Wunderground v.1.15,2013-01-17 19:40:00,
2013-01-17 14:45:00,44.0,32.6,30.08,NNW,342,9.0,10.0,64,0.00,,,0.14,436,Wunderground v.1.15,2013-01-17 19:45:00,
2013-01-17 14:55:00,44.4,32.2,30.08,NW,319,7.0,12.0,62,0.00,,,0.15,418,Wunderground v.1.15,2013-01-17 19:55:00,
2013-01-17 15:05:00,44.9,31.4,30.08,NNE,23,7.0,7.0,59,0.00,,,0.15,408,Wunderground v.1.15,2013-01-17 20:05:00,
2013-01-17 15:10:00,44.9,31.4,30.09,NNW,328,8.0,8.0,59,0.00,,,0.15,396,Wunderground v.1.15,2013-01-17 20:10:00,
2013-01-17 15:20:00,45.0,31.5,30.09,North,359,8.0,11.0,59,0.00,,,0.16,374,Wunderground v.1.15,2013-01-17 20:20:00,
2013-01-17 15:25:00,45.1,32.0,30.08,NNW,333,7.0,11.0,60,0.00,,,0.16,366,Wunderground v.1.15,2013-01-17 20:25:00,
2013-01-17 15:35:00,45.4,31.9,30.08,North,4,6.0,9.0,59,0.00,,,0.16,339,Wunderground v.1.15,2013-01-17 20:35:00,
2013-01-17 15:40:00,45.5,31.1,30.09,NNW,345,6.0,6.0,57,0.00,,,0.16,330,Wunderground v.1.15,2013-01-17 20:40:00,
2013-01-17 15:50:00,45.4,31.0,30.09,ENE,60,6.0,6.0,57,0.00,,,0.17,309,Wunderground v.1.15,2013-01-17 20:50:00,
2013-01-17 16:00:00,45.8,30.5,30.09,NNW,346,5.0,6.0,55,0.00,,,0.17,281,Wunderground v.1.15,2013-01-17 21:00:00,
2013-01-17 16:05:00,45.5,28.9,30.09,NNE,31,6.0,16.0,52,0.00,,,0.17,265,Wunderground v.1.15,2013-01-17 21:05:00,
2013-01-17 16:15:00,45.4,28.8,30.10,NE,45,5.0,7.0,52,0.00,,,0.17,236,Wunderground v.1.15,2013-01-17 21:15:00,
2013-01-17 16:20:00,45.5,29.3,30.10,East,98,4.0,8.0,53,0.00,,,0.17,220,Wunderground v.1.15,2013-01-17 21:20:00,
2013-01-17 16:30:00,44.8,30.5,30.11,NNE,18,6.0,6.0,57,0.00,,,0.18,185,Wunderground v.1.15,2013-01-17 21:30:00,
2013-01-17 16:35:00,44.6,30.7,30.12,NE,48,6.0,6.0,58,0.00,,,0.18,165,Wunderground v.1.15,2013-01-17 21:35:00,
2013-01-17 16:45:00,44.3,30.4,30.14,NNE,13,5.0,6.0,58,0.00,,,0.18,132,Wunderground v.1.15,2013-01-17 21:45:00,
2013-01-17 16:50:00,44.3,30.9,30.14,NE,54,4.0,4.0,59,0.00,,,0.18,123,Wunderground v.1.15,2013-01-17 21:50:00,
2013-01-17 17:00:00,44.0,31.0,30.15,NE,36,3.0,6.0,60,0.00,,,0.18,102,Wunderground v.1.15,2013-01-17 22:00:00,
2013-01-17 17:30:00,42.4,30.7,30.16,NNE,32,3.0,3.0,63,0.00,,,0.19,23,Wunderground v.1.15,2013-01-17 22:30:00,
2013-01-17 17:40:00,42.0,30.7,30.17,NE,53,2.0,2.0,64,0.00,,,0.19,12,Wunderground v.1.15,2013-01-17 22:40:00,
2013-01-17 17:50:00,41.4,30.5,30.18,NE,43,1.0,1.0,65,0.00,,,0.19,5,Wunderground v.1.15,2013-01-17 22:50:00,
2013-01-17 17:55:00,41.1,31.0,30.19,NE,43,1.0,1.0,67,0.00,,,0.19,0,Wunderground v.1.15,2013-01-17 22:55:00,
2013-01-17 18:05:00,40.2,31.2,30.19,NE,43,0.0,0.0,70,0.00,,,0.19,0,Wunderground v.1.15,2013-01-17 23:05:00,
2013-01-17 18:10:00,39.6,31.3,30.20,NE,43,0.0,0.0,72,0.00,,,0.19,0,Wunderground v.1.15,2013-01-17 23:10:00,
2013-01-17 18:20:00,38.1,31.2,30.20,NE,43,0.0,0.0,76,0.00,,,0.19,0,Wunderground v.1.15,2013-01-17 23:20:00,
2013-01-17 18:25:00,37.5,30.9,30.20,NE,43,0.0,0.0,77,0.00,,,0.19,0,Wunderground v.1.15,2013-01-17 23:25:00,
2013-01-17 18:35:00,36.7,30.8,30.21,NNE,31,0.0,0.0,79,0.00,,,0.19,0,Wunderground v.1.15,2013-01-17 23:35:00,
2013-01-17 18:40:00,36.6,30.7,30.21,NNE,31,0.0,0.0,79,0.00,,,0.19,0,Wunderground v.1.15,2013-01-17 23:40:00,
2013-01-17 18:50:00,36.2,30.6,30.21,NNE,31,0.0,0.0,80,0.00,,,0.19,0,Wunderground v.1.15,2013-01-17 23:50:00,
2013-01-17 18:55:00,36.0,30.1,30.21,North,359,0.0,0.0,79,0.00,,,0.19,0,Wunderground v.1.15,2013-01-17 23:55:00,
2013-01-17 19:05:00,36.1,29.6,30.22,NNW,329,0.0,0.0,77,0.00,,,0.19,0,Wunderground v.1.15,2013-01-18 00:05:00,
2013-01-17 19:15:00,35.9,29.1,30.23,NNW,328,0.0,0.0,76,0.00,,,0.19,0,Wunderground v.1.15,2013-01-18 00:15:00,
2013-01-17 19:20:00,35.9,29.1,30.23,NNW,329,0.0,0.0,76,0.00,,,0.19,0,Wunderground v.1.15,2013-01-18 00:20:00,
2013-01-17 19:30:00,35.5,29.6,30.24,NNW,329,0.0,0.0,79,0.00,,,0.19,0,Wunderground v.1.15,2013-01-18 00:30:00,
2013-01-17 19:35:00,35.0,29.5,30.24,NNW,328,0.0,0.0,80,0.00,,,0.19,0,Wunderground v.1.15,2013-01-18 00:35:00,
2013-01-17 19:45:00,33.7,28.8,30.25,NNW,328,0.0,0.0,82,0.00,,,0.19,0,Wunderground v.1.15,2013-01-18 00:45:00,
2013-01-17 19:50:00,33.2,28.9,30.25,NNW,329,0.0,0.0,84,0.00,,,0.19,0,Wunderground v.1.15,2013-01-18 00:50:00,
2013-01-17 20:00:00,32.6,28.9,30.26,NNW,328,0.0,1.0,86,0.00,,,0.19,0,Wunderground v.1.15,2013-01-18 01:00:00,
2013-01-17 20:10:00,32.3,28.3,30.26,NNW,328,0.0,0.0,85,0.00,,,0.19,0,Wunderground v.1.15,2013-01-18 01:10:00,
2013-01-17 20:15:00,32.2,28.5,30.26,NNW,328,0.0,0.0,86,0.00,,,0.19,0,Wunderground v.1.15,2013-01-18 01:15:00,
2013-01-17 20:25:00,31.7,28.0,30.27,NNW,328,0.0,0.0,86,0.00,,,0.19,0,Wunderground v.1.15,2013-01-18 01:25:00,
2013-01-17 20:35:00,31.6,27.9,30.28,NNW,328,0.0,0.0,86,0.00,,,0.19,0,Wunderground v.1.15,2013-01-18 01:35:00,
2013-01-17 20:45:00,31.4,27.4,30.29,NNW,346,0.0,5.0,85,0.00,,,0.19,0,Wunderground v.1.15,2013-01-18 01:45:00,
2013-01-17 20:50:00,32.6,26.2,30.29,WNW,301,2.0,6.0,77,0.00,,,0.19,0,Wunderground v.1.15,2013-01-18 01:50:00,
2013-01-17 21:00:00,34.4,25.6,30.30,NNW,328,4.0,6.0,70,0.00,,,0.19,0,Wunderground v.1.15,2013-01-18 02:00:00,
2013-01-17 21:05:00,34.6,25.5,30.30,NW,324,4.0,6.0,69,0.00,,,0.19,0,Wunderground v.1.15,2013-01-18 02:05:00,
2013-01-17 21:15:00,34.4,25.3,30.31,NNW,346,3.0,4.0,69,0.00,,,0.19,0,Wunderground v.1.15,2013-01-18 02:15:00,
2013-01-17 21:20:00,34.3,25.2,30.32,NW,312,3.0,3.0,69,0.00,,,0.19,0,Wunderground v.1.15,2013-01-18 02:20:00,
2013-01-17 21:30:00,33.6,25.5,30.32,NNW,327,1.0,4.0,72,0.00,,,0.19,0,Wunderground v.1.15,2013-01-18 02:30:00,
2013-01-17 21:40:00,33.5,25.1,30.32,NNW,330,3.0,4.0,71,0.00,,,0.19,0,Wunderground v.1.15,2013-01-18 02:40:00,
2013-01-17 21:45:00,33.4,25.0,30.33,NNW,339,3.0,4.0,71,0.00,,,0.19,0,Wunderground v.1.15,2013-01-18 02:45:00,
2013-01-17 21:55:00,33.2,24.8,30.33,NW,325,3.0,4.0,71,0.00,,,0.19,0,Wunderground v.1.15,2013-01-18 02:55:00,
2013-01-17 22:00:00,33.0,24.6,30.33,NNW,341,3.0,4.0,71,0.00,,,0.19,0,Wunderground v.1.15,2013-01-18 03:00:00,
2013-01-17 22:10:00,32.8,24.4,30.33,NW,326,2.0,2.0,71,0.00,,,0.19,0,Wunderground v.1.15,2013-01-18 03:10:00,
2013-01-17 22:15:00,32.6,24.6,30.33,NW,326,1.0,2.0,72,0.00,,,0.19,0,Wunderground v.1.15,2013-01-18 03:15:00,
2013-01-17 22:25:00,32.3,24.3,30.33,NNW,332,1.0,1.0,72,0.00,,,0.19,0,Wunderground v.1.15,2013-01-18 03:25:00,
2013-01-17 22:35:00,31.9,24.2,30.34,North,354,0.0,1.0,73,0.00,,,0.19,0,Wunderground v.1.15,2013-01-18 03:35:00,
2013-01-17 22:40:00,31.8,24.1,30.34,North,354,0.0,0.0,73,0.00,,,0.19,0,Wunderground v.1.15,2013-01-18 03:40:00,
2013-01-17 22:50:00,31.5,23.8,30.35,North,354,0.0,0.0,73,0.00,,,0.19,0,Wunderground v.1.15,2013-01-18 03:50:00,
2013-01-17 22:55:00,31.4,24.1,30.35,North,354,0.0,0.0,74,0.00,,,0.19,0,Wunderground v.1.15,2013-01-18 03:55:00,
2013-01-17 23:05:00,31.0,25.2,30.35,North,354,0.0,0.0,79,0.00,,,0.19,0,Wunderground v.1.15,2013-01-18 04:05:00,
2013-01-17 23:15:00,30.3,25.5,30.35,North,354,0.0,0.0,82,0.00,,,0.19,0,Wunderground v.1.15,2013-01-18 04:15:00,
2013-01-17 23:25:00,29.7,25.2,30.35,North,354,0.0,0.0,83,0.00,,,0.19,0,Wunderground v.1.15,2013-01-18 04:25:00,
2013-01-17 23:35:00,29.0,25.1,30.36,North,354,0.0,0.0,85,0.00,,,0.19,0,Wunderground v.1.15,2013-01-18 04:35:00,
2013-01-17 23:40:00,28.7,24.5,30.36,North,354,0.0,0.0,84,0.00,,,0.19,0,Wunderground v.1.15,2013-01-18 04:40:00,
2013-01-17 23:50:00,28.3,24.6,30.36,North,354,0.0,0.0,86,0.00,,,0.19,0,Wunderground v.1.15,2013-01-18 04:50:00,
2013-01-17 23:55:00,28.0,24.6,30.36,North,354,0.0,0.0,87,0.00,,,0.19,0,Wunderground v.1.15,2013-01-18 04:55:00,